User: anonymous   Login
Location: Amarillo Post Office Jordan Station
(35.1907°N, 101.9342°W)
Time: 19:57:36
(UTC+00:00)
Language:

ERS-2 - Orbit

View from above orbital plane
View from above orbital plane
View from above satellite
View from above satellite

Ground track
Ground track

The orbit data is extracted from the following two-line orbital elements,

1 23560U 95021A   21111.79878871  .00001471  00000-0  64786-4 0  9992
2 23560  98.5538 314.0561 0003154 179.9257 180.1978 15.23840152389060
Epoch (UTC): 21 April 2021 19:10:15
Eccentricity: 0.0003154
inclination: 98.5538°
perigee height: 492 km
apogee height: 496 km
right ascension of ascending node: 314.0561°
argument of perigee: 179.9257°
revolutions per day: 15.23840152
mean anomaly at epoch: 180.1978°
orbit number at epoch: 38906

The dashed part of the orbit path shows where the satellite is in the earth's shadow,  

DLR